"TOA5","AWS1","CR1000","7964","CR1000.Std.14","CPU:AWS1_114.CR1","64363","TBL110"
"TIMESTAMP","RECORD","Wind_spd_WVc(1)","Wind_spd_WVc(2)","Air_Temp_Avg","Humidity_Avg","SW_upper_Wm2_Avg","Rain_Tot","Press_Avg","Issui_Tot","Depth_cm","SR50A_Raw","Quality","Ground_Temp_Avg(1)","Ground_Temp_Avg(2)","SW_lower_Wm2_Avg","Albedo_Avg","SWC_per(1)","SWC_per(2)","Period(1)","Period(2)"
"TS","RN","","","","","","","","","","","","","","","","","","",""
"","","WVc","WVc","Avg","Avg","Avg","Tot","Avg","Tot","Smp","Smp","Smp","Avg","Avg","Avg","Avg","Smp","Smp","Smp","Smp"
"2017-04-24 00:00:00",285037,0.132,169.5,2.235,70.9,0,0,869.8773,0,-4.976,3.221,185,0.406,0.566,0,0,54.29,63.2,34.34,36.4
"2017-04-24 00:10:00",285038,0.044,186.9,1.765,73.52,0,0,870.0228,0,-5.03,3.219,193,0.407,0.558,0,0,54.24,63.14,34.33,36.39
"2017-04-24 00:20:00",285039,0.355,168.8,1.476,74.69,0,0,870.1092,0,-5.174,3.225,191,0.396,0.581,0,0,54.24,63.08,34.33,36.38
"2017-04-24 00:30:00",285040,0.136,176.3,1.065,77.1,0,0,870.1198,0,-4.903,3.22,177,0.381,0.595,0.0265453,0,54.24,63.02,34.33,36.36
"2017-04-24 00:40:00",285041,0.004,110.7,1.896,72.72,0,0,870.1198,0,-5.009,3.218,186,0.382,0.598,0.4740257,0,54.18,63.02,34.32,36.36
"2017-04-24 00:50:00",285042,0.032,56.21,2.123,71.74,0,0,870.1198,0,-5.137,3.22,177,0.385,0.602,0.5233319,0,54.18,62.96,34.32,36.35
"2017-04-24 01:00:00",285043,0.021,70.79,2.021,73.09,0,0,870.1198,0,-5.196,3.22,177,0.388,0.612,0.2237526,0,54.18,62.9,34.32,36.34
"2017-04-24 01:10:00",285044,0.261,168.2,1.341,76.28,0,0,870.1281,0,-5.02,3.223,182,0.376,0.625,0.007585038,0,54.18,62.9,34.32,36.34
"2017-04-24 01:20:00",285045,0.303,141.2,1.475,76.85,0,0,870.1766,0,-4.754,3.218,191,0.383,0.634,0.2161865,0,54.12,62.9,34.3,36.34
"2017-04-24 01:30:00",285046,0.462,129.9,1.895,77.17,0,0,870.3507,0,-4.809,3.217,184,0.412,0.643,0.2920498,0,54.12,62.84,34.3,36.32
"2017-04-24 01:40:00",285047,0.402,141.3,1.712,79.23,0,0,870.3508,0,-4.811,3.217,191,0.429,0.648,0.02655054,0,54.07,62.84,34.29,36.32
"2017-04-24 01:50:00",285048,0.321,135.5,1.993,78.91,0,0,870.2612,0,-5.037,3.218,195,0.43,0.647,0.05689398,0,54.07,62.78,34.29,36.31
"2017-04-24 02:00:00",285049,0.287,139.8,2.228,78.43,0,0,870.3164,0,-4.914,3.216,189,0.43,0.646,0.1213731,0,54.07,62.78,34.29,36.31
"2017-04-24 02:10:00",285050,0.128,168.4,1.475,80.1,0,0,870.3428,0,-4.847,3.225,194,0.43,0.646,0.007585901,0,54.07,62.72,34.29,36.3
"2017-04-24 02:20:00",285051,0.088,165.4,0.843,84.8,0,0,870.3688,0,-4.91,3.221,194,0.431,0.648,0.01517197,0,54.01,62.66,34.27,36.28
"2017-04-24 02:30:00",285052,0.06,155.6,1.631,82.4,0,0,870.3727,0,-5.196,3.221,189,0.441,0.658,0.2313777,0,54.01,62.66,34.27,36.28
"2017-04-24 02:40:00",285053,0.036,57.55,2.037,80.6,0,0,870.4858,0,-4.924,3.217,190,0.448,0.667,0.5007051,0,54.07,62.66,34.29,36.28
"2017-04-24 02:50:00",285054,0.091,39.06,2.135,80.1,0,0,870.6363,0,-4.548,3.213,189,0.452,0.669,0.5841601,0,54.01,62.6,34.27,36.27
"2017-04-24 03:00:00",285055,0.188,136,2.328,79.12,0,0,870.6829,0,-4.972,3.215,182,0.449,0.665,0.6334619,0,53.95,62.6,34.26,36.27
"2017-04-24 03:10:00",285056,0.104,97.6,2.385,78.42,0,0,870.8962,0,-5.025,3.216,195,0.448,0.663,0.3603493,0,53.95,62.54,34.26,36.25
"2017-04-24 03:20:00",285057,0.039,79.09,2.356,79.31,0,0,871.022,0,-5.022,3.217,190,0.448,0.658,0.1820736,0,53.95,62.54,34.26,36.25
"2017-04-24 03:30:00",285058,0.057,32.38,2.221,81.2,0,0,871.1463,0,-4.821,3.215,194,0.446,0.661,0.0417246,0,53.95,62.54,34.26,36.25
"2017-04-24 03:40:00",285059,0.026,26.97,2.083,81.7,0,0,871.3848,0,-4.664,3.216,186,0.446,0.651,0.1441384,0,53.9,62.54,34.25,36.25
"2017-04-24 03:50:00",285060,0.138,171.6,1.606,83.5,0.05114027,0,871.6288,0,-5.153,3.226,190,0.439,0.637,0.03413726,0.016,53.9,62.48,34.25,36.24
"2017-04-24 04:00:00",285061,0.116,196.6,1.401,86.9,0,0,871.6371,0,-5.182,3.222,186,0.438,0.617,0.1820588,0,53.9,62.48,34.25,36.24
"2017-04-24 04:10:00",285062,0.072,166.2,1.735,84.9,0.3500911,0,871.6772,0,-5.097,3.222,195,0.435,0.604,0.2048095,0.509,53.9,62.48,34.25,36.24
"2017-04-24 04:20:00",285063,0.053,168.3,1.856,86.6,0.3343321,0,871.7742,0,-5.217,3.219,192,0.428,0.612,0.2540953,0.605,53.9,62.48,34.25,36.24
"2017-04-24 04:30:00",285064,0.381,146.2,2.324,86.2,0.6175036,0,871.888,0,-5.063,3.216,192,0.427,0.642,0.6408988,1.09,53.84,62.48,34.23,36.24
"2017-04-24 04:40:00",285065,0.395,143.3,2.434,85.5,0.1809203,0,871.9871,0,-4.733,3.213,195,0.402,0.64,0.185818,0.589,53.84,62.42,34.23,36.23
"2017-04-24 04:50:00",285066,0.24,157.2,2.611,84.7,0.1966495,0,872.1241,0,-4.934,3.213,195,0.404,0.628,0.2199448,0.771,53.84,62.42,34.23,36.23
"2017-04-24 05:00:00",285067,0.088,141.7,2.766,84,0.4129625,0,872.143,0,-4.884,3.212,195,0.386,0.597,0.2275283,0.683,53.84,62.42,34.23,36.23
"2017-04-24 05:10:00",285068,0.324,153.1,2.894,83,1.750173,0,872.143,0,-4.985,3.213,177,0.378,0.594,0.8228931,0.452,53.78,62.42,34.22,36.23
"2017-04-24 05:20:00",285069,0.378,148.3,2.821,82.8,3.641933,0,872.2548,0,-4.808,3.212,195,0.378,0.595,1.884691,0.516,53.78,62.42,34.22,36.23
"2017-04-24 05:30:00",285070,0.708,150.6,2.846,81.4,16.20385,0,872.3917,0,-4.784,3.211,181,0.378,0.595,6.268397,0.419,53.78,62.36,34.22,36.21
"2017-04-24 05:40:00",285071,0.709,149.1,3.123,78.84,27.66059,0,872.4508,0,-4.835,3.209,190,0.378,0.614,9.609267,0.348,53.78,62.36,34.22,36.21
"2017-04-24 05:50:00",285072,0.794,158.9,3.329,77.03,38.9325,0,872.6426,0,-4.785,3.208,177,0.371,0.645,13.61376,0.351,53.78,62.36,34.22,36.21
"2017-04-24 06:00:00",285073,0.788,146.7,3.627,73.97,42.70815,0,872.6489,0,-4.534,3.204,194,0.348,0.671,15.14199,0.355,53.78,62.3,34.22,36.2
"2017-04-24 06:10:00",285074,0.831,145.2,3.848,72.24,60.76049,0,872.8133,0,-4.585,3.203,194,0.387,0.644,22.62766,0.373,53.73,62.3,34.21,36.2
"2017-04-24 06:20:00",285075,0.472,143.8,4.003,71.56,47.65976,0,872.9841,0,-4.585,3.203,193,0.414,0.637,16.64747,0.353,53.73,62.3,34.21,36.2
"2017-04-24 06:30:00",285076,0.823,148.1,4.174,71.24,92.04729,0,873.0831,0,-4.584,3.2,193,0.421,0.612,38.61151,0.478,53.73,62.3,34.21,36.2
"2017-04-24 06:40:00",285077,0.834,155.6,4.503,68.57,70.34515,0,873.1547,0,-4.736,3.202,194,0.42,0.595,27.05688,0.384,53.67,62.3,34.19,36.2
"2017-04-24 06:50:00",285078,0.986,156.7,4.445,68.28,83.55601,0,873.1979,0,-4.483,3.198,177,0.417,0.615,32.72991,0.422,53.73,62.24,34.21,36.19
"2017-04-24 07:00:00",285079,0.904,143.6,4.848,67.62,93.09346,0,873.2797,0,-4.381,3.195,182,0.391,0.629,37.99718,0.413,53.73,62.24,34.21,36.19
"2017-04-24 07:10:00",285080,0.803,161.6,5.234,66.47,84.95394,0,873.0887,0,-4.723,3.194,192,0.379,0.669,45.99739,0.577,53.73,62.24,34.21,36.19
"2017-04-24 07:20:00",285081,0.786,141.2,5.756,63.75,173.6008,0,873.1878,0,-4.561,3.192,191,0.397,0.607,42.76748,0.352,53.67,62.24,34.19,36.19
"2017-04-24 07:30:00",285082,0.82,133.9,5.885,61.86,72.70384,0,873.2658,0,-4.441,3.189,192,0.376,0.58,40.01882,0.553,53.67,62.18,34.19,36.17
"2017-04-24 07:40:00",285083,0.756,135.9,6.219,60.68,86.67837,0,873.3143,0,-4.376,3.186,181,0.351,0.579,44.47337,0.562,53.67,62.18,34.19,36.17
"2017-04-24 07:50:00",285084,0.653,146.7,6.376,58.84,390.325,0,873.4423,0,-3.767,3.181,193,0.34,0.593,65.18119,0.179,53.61,62.18,34.18,36.17
"2017-04-24 08:00:00",285085,0.832,135.1,6.92,58.34,585.884,0,873.5138,0,-4.517,3.183,191,0.326,0.595,115.3902,0.196,53.67,62.18,34.19,36.17
"2017-04-24 08:10:00",285086,0.701,122.4,7.405,56.22,618.7217,0,873.5602,0,-4.613,3.182,193,0.407,0.551,153.3663,0.248,53.67,62.18,34.19,36.17
"2017-04-24 08:20:00",285087,1.335,137,7.144,55.48,651.589,0,873.5393,0,-4.665,3.184,204,0.42,0.531,174.3596,0.268,53.61,62.12,34.18,36.16
"2017-04-24 08:30:00",285088,0.602,118.8,7.76,54.56,656.7073,0,873.4125,0,-4.544,3.181,211,0.349,0.629,182.3121,0.285,53.61,62.12,34.18,36.16
"2017-04-24 08:40:00",285089,0.915,94.5,7.663,53.8,255.3264,0,873.3649,0,-5.251,3.184,183,0.292,0.588,174.4026,0.713,53.61,62.18,34.18,36.17
"2017-04-24 08:50:00",285090,1.136,133.4,8.08,53.03,268.8228,0,873.474,0,-4.916,3.183,182,0.277,0.564,160.197,0.865,53.61,62.12,34.18,36.16
"2017-04-24 09:00:00",285091,0.806,138.3,8.56,52.05,786.347,0,873.4729,0,-5.008,3.181,201,0.255,0.561,166.762,0.212,53.61,62.18,34.18,36.17
"2017-04-24 09:10:00",285092,0.914,139.7,8.85,50.67,815.4643,0,873.4727,0,-5.231,3.181,198,0.264,0.557,184.0705,0.226,53.61,62.18,34.18,36.17
"2017-04-24 09:20:00",285093,1.013,126.4,9.27,49.96,846.3844,0,873.4727,0,-6.447,3.192,181,0.284,0.527,183.3156,0.217,53.56,62.06,34.17,36.15
"2017-04-24 09:30:00",285094,0.786,105,9.31,48.19,875.1689,0,873.4727,0,-5.671,3.179,179,0.341,0.507,185.43,0.212,53.56,62.06,34.17,36.15
"2017-04-24 09:40:00",285095,0.66,58.71,9.9,48.43,910.1375,0,873.4684,0,-5.745,3.181,182,0.333,0.538,196.4258,0.216,53.56,62.06,34.17,36.15
"2017-04-24 09:50:00",285096,0.594,345.7,9.48,49.76,940.993,0,873.4311,0,-5.55,3.181,188,0.287,0.543,205.9363,0.219,53.5,62.06,34.15,36.15
"2017-04-24 10:00:00",285097,0.89,352,9.54,49.17,970.7155,0,873.2156,0,-4.568,3.171,221,0.27,0.501,223.3831,0.23,53.56,62.12,34.17,36.16
"2017-04-24 10:10:00",285098,0.461,353.1,10.19,47.12,994.1052,0,873.1324,0,-6.63,3.185,185,0.236,0.474,240.7906,0.242,53.5,62,34.15,36.13
"2017-04-24 10:20:00",285099,0.875,282.9,9.66,51.4,1019.095,0,873.1233,0,-5.017,3.176,183,0.212,0.47,260.4796,0.256,53.56,62.06,34.17,36.15
"2017-04-24 10:30:00",285100,0.835,303.3,9.73,51.27,1030.22,0,873.0927,0,-5.371,3.179,186,0.219,0.462,277.7025,0.27,53.67,62.06,34.19,36.15
"2017-04-24 10:40:00",285101,0.707,292.5,9.64,52.35,1049.202,0,872.9639,0,-5.649,3.181,192,0.227,0.462,293.7299,0.28,53.9,62.06,34.25,36.15
"2017-04-24 10:50:00",285102,1.15,299,9.67,52.64,1076.351,0,872.8734,0,-6.004,3.184,180,0.239,0.458,311.9361,0.29,54.18,62.06,34.32,36.15
"2017-04-24 11:00:00",285103,0.658,284.5,10.01,52.31,1083.136,0,872.8734,0,-5.764,3.178,191,0.245,0.451,322.7742,0.298,54.46,62.12,34.38,36.16
"2017-04-24 11:10:00",285104,0.75,291.5,10.09,51.85,1093.084,0,872.7976,0,-5.456,3.174,177,0.243,0.455,332.9495,0.305,54.69,62.18,34.44,36.17
"2017-04-24 11:20:00",285105,0.884,307.1,10.67,50.35,1100.6,0,872.667,0,-5.453,3.173,181,0.238,0.458,340.8214,0.31,54.8,62.24,34.46,36.19
"2017-04-24 11:30:00",285106,1.234,291.6,10.68,50.49,1097.645,0,872.6207,0,-5.319,3.17,181,0.245,0.442,343.7346,0.313,54.92,62.42,34.49,36.23
"2017-04-24 11:40:00",285107,0.787,301.7,11.07,49.77,1140.168,0,872.5175,0,-5.231,3.166,177,0.245,0.451,359.1301,0.314,55.03,63.02,34.52,36.36
"2017-04-24 11:50:00",285108,0.659,300.4,11.88,47.91,1030.692,0,872.3744,0,-5.956,3.169,189,0.212,0.458,321.3461,0.306,55.09,63.39,34.53,36.44
"2017-04-24 12:00:00",285109,0.703,355,11.72,48.34,702.6017,0,872.3681,0,-5.559,3.168,179,0.224,0.451,222.8288,0.302,55.15,63.63,34.55,36.5
"2017-04-24 12:10:00",285110,0.515,334.5,11.41,49.92,584.584,0,872.3681,0,-5.527,3.166,188,0.238,0.451,186.0562,0.298,55.15,63.87,34.55,36.55
"2017-04-24 12:20:00",285111,0.496,344.7,12.13,47.86,871.5897,0,872.3639,0,-5.677,3.167,180,0.228,0.447,286.1911,0.315,55.2,63.99,34.56,36.58
"2017-04-24 12:30:00",285112,0.507,316.5,12.17,48.1,631.1931,0,872.3513,0,-5.837,3.17,188,0.204,0.432,198.4627,0.295,55.2,64.05,34.56,36.59
"2017-04-24 12:40:00",285113,0.524,15.93,11.92,48.94,616.546,0,872.307,0,-5.636,3.169,185,0.223,0.444,200.8796,0.307,55.2,64.12,34.56,36.61
"2017-04-24 12:50:00",285114,0.619,35.81,12.08,48.91,822.1674,0,872.1722,0,-5.797,3.166,185,0.229,0.433,265.5641,0.311,55.2,64.12,34.56,36.61
"2017-04-24 13:00:00",285115,0.557,336.5,12.52,48.22,858.4434,0,872.126,0,-5.518,3.164,194,0.202,0.451,277.8797,0.317,55.26,64.12,34.57,36.61
"2017-04-24 13:10:00",285116,0.655,30.45,12.38,48.68,608.8375,0,872.1239,0,-5.861,3.17,179,0.202,0.465,188.3102,0.29,55.26,64.18,34.57,36.62
"2017-04-24 13:20:00",285117,0.692,298.3,12.07,50.28,631.4799,0,872.1049,0,-6.263,3.172,185,0.204,0.47,200.1523,0.303,55.26,64.24,34.57,36.63
"2017-04-24 13:30:00",285118,0.36,307.5,11.81,50.96,342.7967,0,872.1113,0,-5.076,3.164,182,0.226,0.435,103.3397,0.278,55.26,64.24,34.57,36.63
"2017-04-24 13:40:00",285119,0.523,70.04,12.28,50.69,560.1104,0,871.8923,0,-5.872,3.166,178,0.235,0.429,168.9079,0.282,55.26,64.24,34.57,36.63
"2017-04-24 13:50:00",285120,0.402,55.27,12.34,49.69,594.3839,0,871.8459,0,-5.035,3.159,188,0.239,0.428,166.7083,0.272,55.26,64.3,34.57,36.65
"2017-04-24 14:00:00",285121,0.524,114.4,12.88,48.51,520.5237,0,871.6437,0,-5.703,3.166,191,0.209,0.461,133.0657,0.245,55.26,64.3,34.57,36.65
"2017-04-24 14:10:00",285122,0.644,96.6,13.14,48.28,861.1158,0,871.6038,0,-5.798,3.16,193,0.202,0.489,189.3178,0.22,55.26,64.36,34.57,36.66
"2017-04-24 14:20:00",285123,0.806,84.7,13.28,47.29,649.6327,0,871.5532,0,-5.457,3.161,176,0.15,0.465,137.185,0.21,55.26,64.42,34.57,36.68
"2017-04-24 14:30:00",285124,0.571,337.4,12.93,48.63,754.6581,0,871.3742,0,-5.257,3.16,188,0.162,0.463,150.8713,0.198,55.26,64.42,34.57,36.68
"2017-04-24 14:40:00",285125,0.885,352.6,12.88,48.27,767.862,0,871.3616,0,-5.257,3.16,187,0.204,0.462,149.1133,0.197,55.26,64.42,34.57,36.68
"2017-04-24 14:50:00",285126,0.792,9.27,12.98,48.21,786.0997,0,871.4584,0,-5.809,3.163,190,0.216,0.458,138.794,0.177,55.26,64.48,34.57,36.69
"2017-04-24 15:00:00",285127,0.332,232.6,12.84,49.28,552.4413,0,871.3953,0,-6.53,3.171,191,0.252,0.459,103.5708,0.196,55.26,64.54,34.57,36.7
"2017-04-24 15:10:00",285128,0.494,22.88,12.76,49.5,456.6929,0,871.3595,0,-5.768,3.165,195,0.263,0.443,97.07396,0.215,55.26,64.6,34.57,36.72
"2017-04-24 15:20:00",285129,0.496,265.7,12.55,50.17,357.6756,0,871.3595,0,-4.705,3.157,202,0.246,0.442,70.70015,0.204,55.26,64.66,34.57,36.73
"2017-04-24 15:30:00",285130,0.512,142.5,12.23,51.67,167.4281,0,871.4285,0,-5.183,3.16,182,0.246,0.461,54.8842,0.349,55.32,64.66,34.59,36.73
"2017-04-24 15:40:00",285131,0.676,111.9,12.23,51.26,155.4382,0,871.5795,0,-5.096,3.162,186,0.26,0.471,49.94847,0.32,55.26,64.73,34.57,36.74
"2017-04-24 15:50:00",285132,0.452,102.2,12.24,52.21,149.9774,0,871.6366,0,-5.749,3.168,190,0.323,0.473,43.82528,0.292,55.2,64.79,34.56,36.76
"2017-04-24 16:00:00",285133,0.303,76.9,11.91,52.95,133.499,0,871.8805,0,-5.182,3.164,185,0.409,0.405,38.96826,0.292,55.2,64.79,34.56,36.76
"2017-04-24 16:10:00",285134,0.415,107.3,11.83,53.19,138.5537,0,871.936,0,-5.733,3.17,198,0.483,0.473,40.35122,0.291,55.15,64.79,34.55,36.76
"2017-04-24 16:20:00",285135,0.514,132.1,11.53,54.37,123.1633,0,871.9559,0,-5.697,3.172,195,0.478,0.497,36.06392,0.292,55.15,64.85,34.55,36.77
"2017-04-24 16:30:00",285136,0.31,106.6,11.42,55.08,136.6427,0,872.1719,0,-5.523,3.171,193,0.538,0.503,40.45293,0.296,55.09,64.85,34.53,36.77
"2017-04-24 16:40:00",285137,0.457,85.8,11.08,55.86,116.8588,0,872.2086,0,-5.761,3.176,194,0.591,0.505,34.1664,0.292,55.09,64.79,34.53,36.76
"2017-04-24 16:50:00",285138,0.39,66.89,10.73,57.08,100.0296,0,872.2298,0,-5.607,3.174,194,0.607,0.506,28.81944,0.288,55.03,64.79,34.52,36.76
"2017-04-24 17:00:00",285139,0.556,61,10.56,57.64,89.68513,0,872.4005,0,-6.175,3.182,195,0.675,0.51,25.41645,0.283,55.03,64.73,34.52,36.74
"2017-04-24 17:10:00",285140,0.334,87,10.26,59.2,79.48998,0,872.4615,0,-6.177,3.183,195,0.683,0.536,22.67661,0.285,54.97,64.66,34.51,36.73
"2017-04-24 17:20:00",285141,0.252,64.55,10.09,60,70.7451,0,872.5163,0,-6.51,3.187,195,0.689,0.548,20.05425,0.283,54.97,64.73,34.51,36.74
"2017-04-24 17:30:00",285142,0.158,50.61,9.76,61.1,60.54602,0,872.71,0,-6.237,3.187,195,0.786,0.554,16.99609,0.281,54.97,64.66,34.51,36.73
"2017-04-24 17:40:00",285143,0.215,57.02,9.5,61.94,63.43477,0,872.7185,0,-5.984,3.185,242,0.786,0.546,18.09506,0.285,54.97,64.6,34.51,36.72
"2017-04-24 17:50:00",285144,0.309,71.05,9.43,62.59,48.94382,0,872.7185,0,-6.266,3.189,208,0.749,0.545,13.39224,0.27,54.92,64.54,34.49,36.7
"2017-04-24 18:00:00",285145,0.114,85.9,8.99,63.86,26.91851,0,872.7142,0,-6.298,3.192,197,0.847,0.516,6.961387,0.257,54.86,64.54,34.48,36.7
"2017-04-24 18:10:00",285146,0.106,52.96,8.76,65.87,11.86946,0,872.9186,0,-6.401,3.194,192,0.894,0.508,2.406358,0.193,54.86,64.54,34.48,36.7
"2017-04-24 18:20:00",285147,0.045,347.1,8.42,67.86,4.960017,0,872.9565,0,-6.201,3.194,210,0.879,0.506,0.6290638,0.113,54.8,64.54,34.46,36.7
"2017-04-24 18:30:00",285148,0.098,53.93,8.14,68.28,1.281272,0,872.967,0,-6.228,3.195,198,0.92,0.476,0,0,54.8,64.42,34.46,36.68
"2017-04-24 18:40:00",285149,0.086,50.58,8.01,68.36,0,0,872.967,0,-6.285,3.197,192,0.989,0.478,0,0,54.8,64.42,34.46,36.68
"2017-04-24 18:50:00",285150,0.086,53.91,7.84,69.09,0,0,873.1039,0,-5.735,3.192,235,1.035,0.509,0,0,54.8,64.36,34.46,36.66
"2017-04-24 19:00:00",285151,0.036,28.53,7.649,69.48,0,0,873.2008,0,-6.138,3.198,190,1.059,0.542,0,0,54.75,64.36,34.45,36.66
"2017-04-24 19:10:00",285152,0.415,63.99,7.503,69.76,0,0,873.2197,0,-5.846,3.196,190,1.071,0.564,0,0,54.75,64.3,34.45,36.65
"2017-04-24 19:20:00",285153,0.13,39.17,7.402,70.21,0,0,873.3735,0,-6.13,3.198,181,1.039,0.58,0,0,54.69,64.3,34.44,36.65
"2017-04-24 19:30:00",285154,0.255,50.18,7.329,70.79,0,0,873.4683,0,-5.932,3.197,196,1.08,0.588,0,0,54.69,63.99,34.44,36.58
"2017-04-24 19:40:00",285155,0.852,135.6,7.259,71.35,0,0,873.6705,0,-5.985,3.198,189,1.149,0.592,0,0,54.69,63.93,34.44,36.57
"2017-04-24 19:50:00",285156,0.854,154.6,7.199,72.71,0,0,873.8278,0,-6.034,3.198,191,1.191,0.633,0,0,54.69,63.87,34.44,36.55
"2017-04-24 20:00:00",285157,0.631,123.8,7.215,73.5,0,0,874.0052,0,-5.985,3.198,195,1.195,0.659,0,0,54.63,63.81,34.42,36.54
"2017-04-24 20:10:00",285158,0.374,128.4,7.19,73.99,0,0,874.0349,0,-5.935,3.198,195,1.181,0.67,0,0,54.63,63.81,34.42,36.54
"2017-04-24 20:20:00",285159,0.362,127.3,7.118,74.57,0,0,874.1614,0,-5.935,3.198,190,1.156,0.679,0,0,54.63,63.75,34.42,36.53
"2017-04-24 20:30:00",285160,0.086,77.84,7.17,74.41,0,0,874.291,0,-6.036,3.199,189,1.147,0.677,0,0,54.58,63.75,34.41,36.53
"2017-04-24 20:40:00",285161,0.276,179,7.083,74.55,0,0,874.2986,0,-5.885,3.198,185,1.16,0.67,0,0,54.58,63.69,34.41,36.51
"2017-04-24 20:50:00",285162,0.414,47.92,6.996,75.53,0,0,874.303,0,-5.936,3.199,189,1.23,0.658,0,0,54.52,63.63,34.4,36.5
"2017-04-24 21:00:00",285163,0.688,107.5,6.894,76.88,0,0,874.3111,0,-5.735,3.198,195,1.275,0.638,0,0,54.52,63.63,34.4,36.5
"2017-04-24 21:10:00",285164,0.637,141.2,6.767,78.52,0,0,874.2914,0,-5.887,3.2,180,1.282,0.653,0,0,54.52,63.57,34.4,36.49
"2017-04-24 21:20:00",285165,0.231,88.3,6.549,80.5,0,0,874.1229,0,-6.04,3.203,201,1.282,0.678,0,0,54.46,63.51,34.38,36.47
"2017-04-24 21:30:00",285166,0.202,28.49,6.361,82.3,0,0,874.0687,0,-5.889,3.202,194,1.282,0.694,0,0,54.46,63.45,34.38,36.46
"2017-04-24 21:40:00",285167,0.367,77.56,6.239,84.5,0,0,873.9659,0,-5.89,3.203,180,1.284,0.696,0,0,54.46,63.45,34.38,36.46
"2017-04-24 21:50:00",285168,0.344,44.64,6.147,86,0,0,873.8191,0,-5.84,3.203,187,1.284,0.689,0,0,54.46,63.39,34.38,36.44
"2017-04-24 22:00:00",285169,0.731,307.1,5.99,87.7,0,0,873.6633,0,-5.865,3.204,189,1.284,0.683,0,0,54.41,63.32,34.37,36.43
"2017-04-24 22:10:00",285170,0.197,350.5,5.931,91,0,0,873.5664,0,-5.891,3.205,193,1.284,0.686,0,0,54.41,63.32,34.37,36.43
"2017-04-24 22:20:00",285171,0.302,16.17,5.729,93.5,0,0,873.5664,0,-6.017,3.207,188,1.284,0.691,0,0,54.35,63.32,34.36,36.43
"2017-04-24 22:30:00",285172,0.258,19.89,5.627,95.8,0.08649579,0,873.5664,0,-5.993,3.207,185,1.284,0.686,0,0,54.35,63.26,34.36,36.42
"2017-04-24 22:40:00",285173,0.264,35.82,5.685,94.9,0.3617097,0,873.5664,0,-6.144,3.208,175,1.284,0.692,0,0,54.35,63.26,34.36,36.42
"2017-04-24 22:50:00",285174,0.159,92.9,5.659,94.1,0.2280343,0,873.5664,0,-6.043,3.208,189,1.284,0.734,0,0,54.29,63.2,34.34,36.4
"2017-04-24 23:00:00",285175,0.014,98.9,5.55,95.1,0,0,873.579,0,-5.841,3.206,192,1.284,0.761,0,0,54.24,63.14,34.33,36.39
"2017-04-24 23:10:00",285176,0.092,129.7,5.516,96.7,0,0,873.5664,0,-5.892,3.207,189,1.284,0.765,0,0,54.24,63.14,34.33,36.39
"2017-04-24 23:20:00",285177,0.073,23.18,5.514,98.6,0.007863254,0,873.7391,0,-6.043,3.208,181,1.284,0.765,0,0,54.24,63.14,34.33,36.39
"2017-04-24 23:30:00",285178,0.386,89.2,5.423,99.2,0,0,873.8845,0,-5.918,3.208,189,1.284,0.765,0,0,54.24,63.08,34.33,36.38
"2017-04-24 23:40:00",285179,0.453,146.4,5.275,100,0,0,874.0426,0,-5.942,3.208,189,1.284,0.765,0,0,54.18,63.02,34.32,36.36
"2017-04-24 23:50:00",285180,0.408,101.3,5.26,100,0,0,874.0678,0,-5.892,3.208,189,1.284,0.777,0,0,54.18,62.96,34.32,36.35
